Hourly Observations for February 13, 2018

Temp ( °F °C ) Dew Point ( °F °C ) Humidity (%) Winds ( mph kmh ) Pressure ( in mb ) Visibility ( mi km ) Precip ( " mm )
12:53 am 00:53 Clear 66 18.9 64 17.8 93 93 Calm 29.83 1010 10 16.09344 0 0
1:53 am 01:53 Mostly Clear 66 18.9 64 17.8 93 93 Calm 29.8 1009 7 11.265408 0 0
2:53 am 02:53 Cloudy 66 18.9 64 17.8 93 93 Calm 29.83 1010 7 11.265408 0 0
3:53 am 03:53 Cloudy 66 18.9 65 18.3 96 96 Calm 29.83 1010 7 11.265408 0 0
4:53 am 04:53 Cloudy 67 19.4 65 18.3 93 93 Calm 29.83 1010 8 12.874752 0.001 0.001
5:53 am 05:53 Cloudy with Rain 67 19.4 65 18.3 93 93 Calm 29.83 1010 4 6.437376 0.02 0.508
6:09 am 06:09 Cloudy with Heavy Rain 67 19.4 65 18.3 93 93 Calm 29.88 1012 1.75 2.816352 0.06 1.524
6:18 am 06:18 Cloudy with Light Rain 67 19.4 65 18.3 93 93 Calm 29.88 1012 2.5 4.02336 0.08 2.032
6:27 am 06:27 Cloudy with Light Rain 67 19.4 65 18.3 93 93 N 3 6 29.88 1012 3 4.828032 0.09 2.286
6:53 am 06:53 Cloudy with Mist and Fog 67 19.4 65 18.3 93 93 NNE 5 7 29.83 1010 4 6.437376 0.1 2.54
7:53 am 07:53 Cloudy with Mist and Fog 68 20 66 18.9 93 93 NNE 5 7 29.85 1011 4 6.437376 0.01 0.254
8:15 am 08:15 Mostly Cloudy with Mist and Fog 69 20.6 67 19.4 93 93 NNE 5 7 29.85 1011 4 6.437376 0 0
8:53 am 08:53 Cloudy with Mist and Fog 70 21.1 67 19.4 90 90 NNE 5 7 29.85 1011 5 8.04672 0 0
9:53 am 09:53 Cloudy with Mist and Fog 72 22.2 68 20 87 87 NE 6 9 29.85 1011 4 6.437376 0 0
10:53 am 10:53 Cloudy with Haze 75 23.9 69 20.6 82 82 NE 6 9 29.85 1011 6 9.656064 0 0
11:08 am 11:08 Cloudy 74 23.3 68 20 82 82 ENE 7 11 29.88 1012 7 11.265408 0 0
11:41 am 11:41 Cloudy 75 23.9 68 20 79 79 E 3 6 29.88 1012 7 11.265408 0 0
11:53 am 11:53 Cloudy 75 23.9 68 20 79 79 ENE 5 7 29.85 1011 7 11.265408 0 0
12:18 pm 12:18 Cloudy with Haze 77 25 69 20.6 77 77 N 5 7 29.85 1011 6 9.656064 0 0
12:28 pm 12:28 Cloudy with Haze 76 24.4 68 20 77 77 NNE 7 11 29.85 1011 6 9.656064 0 0
12:53 pm 12:53 Cloudy with Haze 75 23.9 67 19.4 76 76 NNE 6 9 29.83 1010 6 9.656064 0 0
1:17 pm 13:17 Cloudy with Thunderstorms 75 23.9 67 19.4 76 76 NNE 3 6 29.85 1011 7 11.265408 0 0
1:32 pm 13:32 Cloudy with Thunderstorms 73 22.8 68 20 84 84 W 8 13 29.85 1011 5 8.04672 0 0
1:41 pm 13:41 Cloudy with Thunderstorms 72 22.2 69 20.6 91 91 W 9 15 29.83 1010 3 4.828032 0 0
1:48 pm 13:48 Cloudy with Light Thunderstorms 72 22 68 20 88 88 W 10 17 29.83 1010 3 4.828032 0.001 0.001
1:53 pm 13:53 Cloudy with Thunderstorms 71 21.7 68 20 90 90 W 9 15 29.83 1010 2 3.218688 0.001 0.001
2:01 pm 14:01 Cloudy with Heavy Thunderstorms 71 21.7 68 20 90 90 WSW 10 17 29.83 1010 1 1.609344 0.05 1.27
2:07 pm 14:07 Cloudy with Nearby Thunderstorms 70 21.1 68 20 93 93 WSW 7 11 29.83 1010 0.5 0.804672 0.11 2.794
2:13 pm 14:13 Cloudy with Heavy Rain 69 20.6 68 20 96 96 W 7 11 29.83 1010 0.25 0.402336 0.32 8.128
2:20 pm 14:20 Cloudy with Heavy Thunderstorms 69 20.6 68 20 96 96 SW 3 6 29.83 1010 0.25 0.402336 0.42 10.668
2:38 pm 14:38 Cloudy with Thunderstorms 69 20.6 67 19.4 93 93 Calm 29.83 1010 0.75 1.207008 0.85 21.59
2:45 pm 14:45 Cloudy with Thunderstorms 69 20.6 67 19.4 93 93 Calm 29.83 1010 1.5 2.414016 0.88 22.352
2:53 pm 14:53 Cloudy with Light Thunderstorms 70 21.1 67 19.4 90 90 E 3 6 29.83 1010 3 4.828032 0.89 22.606
3:02 pm 15:02 Cloudy with Nearby Thunderstorms 70 21.1 67 19.4 90 90 Calm 29.83 1010 2.5 4.02336 0.01 0.254
3:17 pm 15:17 Cloudy with Nearby Thunderstorms 69 20.6 67 19.4 93 93 NE 7 11 29.83 1010 3 4.828032 0.05 1.27
3:36 pm 15:36 Cloudy with Light Rain 70 21.1 68 20 93 93 NNE 6 9 29.83 1010 2.5 4.02336 0.09 2.286
3:42 pm 15:42 Cloudy with Nearby Thunderstorms 70 21.1 68 20 93 93 NNE 8 13 29.83 1010 3 4.828032 0.1 2.54
3:53 pm 15:53 Cloudy with Nearby Thunderstorms 70 21.1 67 19.4 90 90 N 6 9 29.83 1010 6 9.656064 0.11 2.794
4:01 pm 16:01 Cloudy with Light Rain 70 21.1 67 19.4 90 90 N 6 9 29.83 1010 6 9.656064 0.001 0.001
4:53 pm 16:53 Partly Cloudy 72 22.2 68 20 87 87 N 3 6 29.8 1009 8 12.874752 0.01 0.254
5:18 pm 17:18 Mostly Sunny 74 23.3 69 20.6 85 85 N 3 6 29.8 1009 9 14.484096 0 0
5:53 pm 17:53 Mostly Sunny 73 22.8 68 20 84 84 Calm 29.8 1009 8 12.874752 0 0
6:53 pm 18:53 Cloudy 72 22.2 68 20 87 87 N 6 9 29.8 1009 10 16.09344 0 0
7:53 pm 19:53 Mostly Cloudy 70 21.1 68 20 93 93 Calm 29.8 1009 10 16.09344 0 0
8:23 pm 20:23 Mostly Cloudy 70 21.1 67 19.4 90 90 Calm 29.83 1010 9 14.484096 0 0
8:53 pm 20:53 Clear with Mist and Fog 69 20.6 67 19.4 93 93 Calm 29.8 1009 4 6.437376 0 0
9:53 pm 21:53 Clear with Mist and Fog 67 19.4 66 18.9 97 97 Calm 29.83 1010 2.5 4.02336 0 0
10:11 pm 22:11 Mostly Clear with Mist and Fog 67 19.4 65 18.3 93 93 Calm 29.83 1010 3 4.828032 0 0
10:16 pm 22:16 Mostly Clear with Mist and Fog 67 19.4 65 18.3 93 93 Calm 29.83 1010 1.75 2.816352 0 0
10:28 pm 22:28 Mostly Clear with Mist and Fog 67 19.4 65 18.3 93 93 SSW 3 6 29.83 1010 3 4.828032 0 0
10:53 pm 22:53 Clear 67 19.4 65 18.3 93 93 S 3 6 29.83 1010 8 12.874752 0 0
11:53 pm 23:53 Clear with Mist and Fog 66 18.9 64 17.8 93 93 WSW 3 6 29.83 1010 5 8.04672 0 0
Site Deisgn Provided by Innovations Branding House, Paducah, KY